Weather History for KCPC - December, 2013

Change the Weather History Date:

Friday, December 6, 2013

  Actual Average (KLBT) Record (KLBT)
Temperature  
Mean Temperature 73 °F 48 °F  
Max Temperature 81 °F 60 °F 79 °F (1998)
Min Temperature 66 °F 37 °F 23 °F (2010)
Degree Days  
Heating Degree Days 0 17  
Month to date heating degree days 96  
Since 1 July heating degree days 562  
Cooling Degree Days 8 0  
Month to date cooling degree days 0  
Year to date cooling degree days 1907  
Growing Degree Days 23 (Base 50)    
Moisture  
Dew Point 65 °F    
Average Humidity 80    
Maximum Humidity 93    
Minimum Humidity 55    
Precipitation  
Precipitation 0.00 in 0.11 in 0.06 in (2014)
Month to date precipitation 0.65  
Year to date precipitation 41.28  
Sea Level Pressure  
Sea Level Pressure 30.10 in    
Wind  
Wind Speed 8 mph (SSW)    
Max Wind Speed 15 mph    
Max Gust Speed 25 mph    
Visibility 10 miles    
Events      
T = Trace of Precipitation, MM = Missing Value Source: NWS Daily Summary

Daily Weather History Graph

Daily Weather History Graph

Search for Another Location

Airport or City:

Trip Planner

Search our weather history database for the weather conditions in past years. The results will help you decide how hot, cold, wet, or windy it might be!

Date:

Astronomy

Dec. 06, 2013 Rise Set
Actual Time 7:07 AM EST 5:04 PM EST
Civil Twilight 6:39 AM EST 5:32 PM EST
Nautical Twilight 6:08 AM EST 6:03 PM EST
Astronomical Twilight 5:37 AM EST 6:34 PM EST
Moon 10:17 AM EST (12/6) 9:27 PM EST (12/6)
Length of Visible Light 10h 52m
Length of Day
9h 57m
Waxing Crescent, 19% of the Moon is Illuminated
Dec 6
Waxing Crescent
Dec 9
First Quarter
Dec 17
Full
Dec 25
Last Quarter
Jan 1
New

Hourly Weather History & Observations

Time (EST) Temp. Heat Index Dew Point Humidity Pressure Visibility Wind Dir Wind Speed Gust Speed Precip Events Conditions
12:15 AM 66.7 °F - 62.4 °F 86% 30.10 in 10.0 mi South 4.6 mph - N/A   Overcast
12:35 AM 66.7 °F - 62.6 °F 86% 30.09 in 10.0 mi South 4.6 mph - N/A   Overcast
12:55 AM 67.1 °F - 63.1 °F 87% 30.09 in 10.0 mi South 4.6 mph - N/A   Overcast
1:15 AM 67.3 °F - 63.5 °F 88% 30.09 in 10.0 mi South 5.8 mph - N/A   Overcast
1:35 AM 67.1 °F - 63.7 °F 89% 30.10 in 10.0 mi South 6.9 mph - N/A   Mostly Cloudy
1:55 AM 67.5 °F - 64.0 °F 89% 30.09 in 10.0 mi South 6.9 mph - N/A   Overcast
2:15 AM 68.0 °F - 64.4 °F 88% 30.09 in 10.0 mi South 6.9 mph - N/A   Mostly Cloudy
2:35 AM 68.0 °F - 64.6 °F 89% 30.09 in 10.0 mi South 6.9 mph - N/A   Scattered Clouds
2:55 AM 68.4 °F - 64.8 °F 88% 30.09 in 10.0 mi SSW 8.1 mph - N/A   Scattered Clouds
3:15 AM 68.4 °F - 64.6 °F 88% 30.10 in 10.0 mi SSW 6.9 mph - N/A   Mostly Cloudy
3:35 AM 68.5 °F - 64.8 °F 88% 30.09 in 10.0 mi South 9.2 mph - N/A   Overcast
3:55 AM 68.9 °F - 64.8 °F 87% 30.09 in 10.0 mi SSW 8.1 mph - N/A   Overcast
4:15 AM 68.9 °F - 64.8 °F 87% 30.09 in 10.0 mi South 8.1 mph - N/A   Mostly Cloudy
4:35 AM 68.9 °F - 64.4 °F 86% 30.10 in 10.0 mi SSW 6.9 mph - N/A   Mostly Cloudy
4:55 AM 68.7 °F - 64.0 °F 85% 30.10 in 10.0 mi SSW 6.9 mph - N/A   Scattered Clouds
5:15 AM 68.4 °F - 64.0 °F 86% 30.10 in 10.0 mi SSW 6.9 mph - N/A   Mostly Cloudy
5:35 AM 68.0 °F - 63.7 °F 86% 30.10 in 10.0 mi SSW 8.1 mph - N/A   Scattered Clouds
5:55 AM 68.0 °F - 63.7 °F 86% 30.10 in 10.0 mi SSW 6.9 mph - N/A   Clear
6:15 AM 68.2 °F - 63.5 °F 85% 30.10 in 10.0 mi SSW 9.2 mph - N/A   Clear
6:35 AM 68.0 °F - 63.5 °F 85% 30.10 in 10.0 mi South 8.1 mph - N/A   Clear
6:55 AM 67.6 °F - 63.7 °F 87% 30.11 in 10.0 mi SSW 8.1 mph - N/A   Clear
7:15 AM 67.3 °F - 64.2 °F 90% 30.11 in 10.0 mi SSW 8.1 mph - N/A   Clear
7:35 AM 67.6 °F - 64.9 °F 91% 30.12 in 10.0 mi SSW 6.9 mph - N/A   Scattered Clouds
7:55 AM 68.5 °F - 65.8 °F 91% 30.12 in 10.0 mi SSW 8.1 mph - N/A   Mostly Cloudy
8:15 AM 69.1 °F - 66.2 °F 91% 30.13 in 10.0 mi SSW 10.4 mph - N/A   Overcast
8:35 AM 69.8 °F - 66.6 °F 89% 30.14 in 10.0 mi SSW 9.2 mph 16.1 mph N/A   Overcast
8:55 AM 70.5 °F - 66.9 °F 88% 30.14 in 10.0 mi SSW 13.8 mph 19.6 mph N/A   Overcast
9:15 AM 70.9 °F - 66.9 °F 87% 30.14 in 10.0 mi SSW 10.4 mph 16.1 mph N/A   Overcast
9:35 AM 72.3 °F - 67.1 °F 84% 30.15 in 10.0 mi SSW 9.2 mph - N/A   Overcast
9:55 AM 73.4 °F - 66.7 °F 80% 30.16 in 10.0 mi SSW 12.7 mph 18.4 mph N/A   Mostly Cloudy
10:15 AM 74.3 °F - 66.7 °F 77% 30.16 in 10.0 mi SSW 11.5 mph 23.0 mph N/A   Overcast
10:35 AM 74.3 °F - 66.7 °F 77% 30.16 in 10.0 mi SSW 12.7 mph 23.0 mph N/A   Overcast
10:55 AM 75.0 °F - 66.9 °F 76% 30.16 in 10.0 mi SSW 15.0 mph 21.9 mph N/A   Overcast
11:15 AM 75.9 °F - 66.9 °F 74% 30.15 in 10.0 mi SW 13.8 mph 20.7 mph N/A   Overcast
11:35 AM 77.9 °F - 66.0 °F 67% 30.14 in 10.0 mi SSW 13.8 mph 21.9 mph N/A   Mostly Cloudy
11:55 AM 78.8 °F - 65.8 °F 64% 30.13 in 10.0 mi SSW 11.5 mph 19.6 mph N/A   Mostly Cloudy
12:15 PM 80.2 °F 82.2 °F 65.8 °F 61% 30.12 in 10.0 mi SSW 13.8 mph 17.3 mph N/A   Mostly Cloudy
12:35 PM 79.3 °F - 64.8 °F 61% 30.11 in 10.0 mi SSW 11.5 mph - N/A   Scattered Clouds
12:55 PM 80.4 °F 82.1 °F 64.6 °F 58% 30.10 in 10.0 mi SSW 12.7 mph 19.6 mph N/A   Scattered Clouds
1:15 PM 80.4 °F 82.1 °F 64.4 °F 58% 30.09 in 10.0 mi SSW 13.8 mph 19.6 mph N/A   Scattered Clouds
1:35 PM 80.6 °F 81.9 °F 63.1 °F 55% 30.08 in 10.0 mi SSW 13.8 mph 25.3 mph N/A   Scattered Clouds
1:55 PM 80.8 °F 82.2 °F 63.9 °F 56% 30.07 in 10.0 mi South 12.7 mph 17.3 mph N/A   Scattered Clouds
2:15 PM 80.2 °F 81.8 °F 63.5 °F 57% 30.06 in 10.0 mi SSW 12.7 mph 18.4 mph N/A   Scattered Clouds
2:35 PM 79.9 °F - 63.3 °F 57% 30.06 in 10.0 mi South 15.0 mph 21.9 mph N/A   Scattered Clouds
2:55 PM 79.7 °F - 63.5 °F 58% 30.05 in 10.0 mi South 12.7 mph 18.4 mph N/A   Scattered Clouds
3:15 PM 79.0 °F - 63.3 °F 59% 30.05 in 10.0 mi South 11.5 mph 16.1 mph N/A   Scattered Clouds
3:35 PM 78.1 °F - 63.7 °F 61% 30.05 in 10.0 mi South 12.7 mph - N/A   Mostly Cloudy
3:55 PM 78.1 °F - 63.5 °F 61% 30.05 in 10.0 mi South 10.4 mph - N/A   Scattered Clouds
4:15 PM 77.2 °F - 64.0 °F 64% 30.05 in 10.0 mi South 6.9 mph - N/A   Scattered Clouds
4:35 PM 75.7 °F - 64.4 °F 68% 30.06 in 10.0 mi South 6.9 mph - N/A   Clear
4:55 PM 74.3 °F - 64.6 °F 72% 30.06 in 10.0 mi South 5.8 mph - N/A   Clear
5:15 PM 73.4 °F - 64.4 °F 73% 30.06 in 10.0 mi SSE 5.8 mph - N/A   Clear
5:35 PM 72.7 °F - 64.2 °F 75% 30.07 in 10.0 mi South 5.8 mph - N/A   Clear
6:55 PM 70.7 °F - 64.8 °F 81% 30.08 in 10.0 mi South 9.2 mph - N/A   Clear
7:15 PM 70.2 °F - 65.3 °F 85% 30.08 in 10.0 mi South 8.1 mph - N/A   Clear
7:35 PM 70.2 °F - 65.3 °F 85% 30.09 in 10.0 mi South 8.1 mph - N/A   Clear
7:55 PM 69.8 °F - 65.3 °F 86% 30.08 in 10.0 mi South 6.9 mph - N/A   Clear
8:15 PM 69.6 °F - 65.5 °F 87% 30.08 in 10.0 mi South 6.9 mph - N/A   Clear
8:35 PM 69.1 °F - 65.3 °F 88% 30.08 in 10.0 mi South 6.9 mph - N/A   Clear
8:55 PM 68.2 °F - 65.1 °F 90% 30.09 in 10.0 mi South 5.8 mph - N/A   Clear
9:15 PM 68.0 °F - 64.8 °F 89% 30.08 in 10.0 mi SSE 6.9 mph - N/A   Clear
9:35 PM 67.3 °F - 64.6 °F 91% 30.08 in 10.0 mi South 10.4 mph - N/A   Clear
9:55 PM 67.1 °F - 64.4 °F 91% 30.08 in 10.0 mi South 8.1 mph - N/A   Clear
10:15 PM 67.1 °F - 64.4 °F 91% 30.08 in 10.0 mi South 8.1 mph - N/A   Clear
10:35 PM 66.6 °F - 64.0 °F 92% 30.09 in 10.0 mi South 9.2 mph - N/A   Clear
10:55 PM 66.6 °F - 64.2 °F 92% 30.09 in 10.0 mi South 9.2 mph - N/A   Clear
11:15 PM 66.6 °F - 64.4 °F 93% 30.09 in 10.0 mi South 6.9 mph - N/A   Clear
11:35 PM 66.6 °F - 64.4 °F 93% 30.10 in 10.0 mi South 6.9 mph - N/A   Clear
11:55 PM 66.4 °F - 64.2 °F 93% 30.09 in 10.0 mi South 6.9 mph - N/A   Clear